Temp
10 10 10 10 11 11 11 11 11 12 12 12 13 13 13 13 14 14 14 14 14 14 15 15 15 15 15 15 15 15 15 15 15 15 15 14 14 14 13 13 13 13
10 10 10 10 10 11 11 11 11 11 12 12 12 13 13 13 13 13 14 14 14 14 14 15 15 15 15 15 15 15 15 15 15 15 15 14 14 14 14 13 13 13
10 10 10 10 10 10 10 11 11 11 12 12 12 12 13 13 13 13 13 14 14 14 14 14 14 15 15 14 14 14 14 14 15 15 15 15 14 14 14 14 13 13
10 10 10 9 9 9 10 10 11 11 11 12 12 12 12 13 13 13 13 13 13 13 14 14 14 14 15 14 14 14 14 14 15 15 14 14 14 14 14 14 13 13
8 9 9 9 9 9 10 10 10 11 11 12 12 12 12 12 13 13 13 13 13 13 13 13 13 14 14 14 14 14 14 14 15 15 14 14 14 14 14 14 14 14
6 7 8 8 9 9 10 10 10 11 11 12 12 12 12 12 12 13 13 13 13 13 13 13 13 13 13 13 14 14 14 14 15 15 14 14 14 15 15 14 14 14
5 6 6 7 8 9 9 10 10 11 11 12 12 12 12 12 12 12 13 13 12 13 13 13 13 13 13 13 13 14 14 14 14 14 14 14 14 15 15 15 15 14
5 5 6 6 7 8 9 10 10 11 11 11 12 12 12 12 12 12 13 12 12 13 13 13 13 13 13 14 14 13 13 14 14 14 14 14 14 14 15 15 15 15
4 4 5 5 6 8 9 9 10 11 11 11 11 11 12 12 12 12 13 13 13 13 13 13 13 13 13 13 14 14 13 14 14 14 15 14 14 15 15 15 15 15
4 4 4 5 6 8 9 9 10 11 11 11 11 11 11 12 12 13 13 13 13 13 13 13 13 13 13 13 13 14 14 14 14 15 15 15 15 16 16 15 15 15
4 4 4 4 6 8 9 9 10 10 11 11 11 11 12 12 13 13 13 13 13 14 14 14 13 13 13 13 14 14 14 14 14 15 15 15 15 15 16 16 15 15
4 4 4 4 6 7 8 9 9 10 10 11 11 11 12 12 12 13 13 14 14 14 14 14 14 13 13 13 14 14 14 15 15 15 15 15 14 15 15 15 15 15
5 4 4 5 6 7 7 8 9 9 10 10 11 11 11 12 12 13 13 13 14 14 14 14 14 13 13 13 14 14 15 15 15 15 14 14 14 15 15 15 15 15
5 4 4 4 5 6 7 8 8 9 9 10 10 10 11 12 12 12 13 13 13 13 13 13 13 13 13 13 13 14 15 15 15 14 14 14 15 15 15 15 15 15
5 5 4 5 5 6 7 7 8 9 9 10 10 10 11 11 12 12 12 12 12 12 13 12 12 12 12 13 13 13 14 14 15 14 14 14 15 15 15 15 15 14
5 6 6 5 6 6 7 8 8 9 9 10 10 10 11 11 11 11 12 12 12 12 12 12 12 12 12 12 13 13 13 13 14 14 14 14 14 15 15 15 15 14
5 6 6 6 6 6 7 7 8 8 9 9 10 10 11 11 10 11 11 11 11 11 11 11 12 12 12 12 12 12 13 13 13 13 13 13 14 14 15 15 15 15
4 5 6 6 6 7 7 7 8 8 9 9 9 10 10 10 10 10 10 10 11 11 11 12 11 12 12 12 12 12 12 12 13 13 13 13 13 14 14 15 15 15
4 5 5 6 7 7 7 8 8 8 8 9 9 9 10 10 9 9 10 10 10 11 11 12 12 12 12 12 12 12 12 12 12 13 13 13 13 14 14 15 15 16
4 4 5 5 6 7 7 7 8 8 8 8 8 9 9 9 9 9 10 10 10 11 11 11 11 11 12 12 12 13 13 13 13 13 13 13 13 14 14 15 15 16
3 3 3 4 5 6 6 7 7 7 7 8 8 8 8 9 9 9 9 10 10 10 11 11 11 12 12 12 12 12 13 13 13 13 13 13 13 14 14 14 15 15
1 2 2 2 3 4 5 6 6 6 7 7 8 8 8 9 9 8 9 9 10 10 10 11 11 12 12 12 12 12 13 13 13 13 13 13 13 13 14 14 15 15
0 0 0 0 1 2 3 3 4 5 6 6 7 8 8 9 9 9 9 9 10 10 10 11 12 12 12 12 13 13 12 12 12 13 13 13 13 13 14 14 14 15
-0 -0 -0 0 0 1 1 1 2 3 4 5 6 7 8 8 9 9 9 9 10 10 10 11 11 12 12 12 13 13 12 12 12 12 12 13 13 13 13 13 14 14
0 0 0 0 1 1 1 1 1 1 3 4 5 6 6 7 8 9 9 10 10 10 10 11 11 12 12 12 12 12 12 12 12 12 12 13 13 13 13 14 14 14
0 0 0 1 1 1 1 1 1 1 1 2 3 4 5 6 7 8 9 10 10 10 10 11 11 12 12 12 12 12 12 12 12 12 12 12 12 13 13 13 14 13
Height
1475 1475 1474 1473 1472 1472 1472 1471 1472 1472 1472 1473 1473 1473 1474 1475 1477 1478 1480 1481 1482 1483 1484 1487 1488 1489 1490 1492 1494 1495 1496 1497 1498 1500 1502 1503 1504 1506 1507 1509 1510 1511
1471 1470 1470 1469 1469 1468 1468 1468 1468 1468 1468 1469 1470 1470 1470 1471 1471 1473 1475 1476 1477 1478 1480 1482 1483 1484 1486 1488 1490 1491 1492 1493 1494 1495 1497 1498 1500 1501 1503 1504 1506 1507
1466 1466 1466 1466 1465 1465 1464 1464 1464 1464 1464 1465 1466 1466 1466 1466 1467 1468 1470 1471 1472 1473 1475 1477 1478 1480 1481 1482 1485 1486 1487 1488 1488 1490 1492 1493 1495 1497 1498 1500 1501 1503
1461 1461 1461 1462 1461 1461 1460 1460 1460 1461 1461 1461 1461 1462 1462 1462 1463 1463 1464 1466 1467 1468 1469 1471 1473 1474 1476 1477 1479 1481 1482 1483 1483 1485 1486 1488 1490 1492 1494 1496 1497 1498
1456 1456 1456 1456 1456 1457 1457 1456 1456 1457 1457 1457 1457 1458 1458 1458 1458 1458 1459 1460 1462 1463 1464 1466 1467 1469 1470 1472 1473 1475 1476 1477 1478 1479 1481 1483 1485 1487 1489 1491 1492 1492
1451 1451 1451 1451 1452 1452 1452 1452 1453 1453 1453 1453 1453 1453 1454 1454 1454 1454 1454 1455 1456 1457 1459 1460 1462 1463 1464 1466 1468 1469 1470 1472 1473 1474 1476 1477 1479 1479 1482 1484 1486 1487
1447 1446 1446 1446 1447 1447 1447 1447 1448 1449 1449 1449 1449 1449 1449 1449 1449 1449 1450 1450 1451 1452 1453 1455 1456 1457 1458 1460 1461 1463 1465 1467 1468 1470 1471 1472 1474 1475 1475 1476 1478 1481
1444 1442 1442 1442 1441 1441 1443 1443 1444 1444 1445 1445 1444 1444 1445 1445 1445 1445 1445 1446 1446 1447 1448 1449 1451 1452 1453 1454 1455 1457 1460 1462 1463 1465 1466 1467 1470 1471 1470 1470 1471 1473
1440 1439 1438 1437 1436 1437 1439 1440 1440 1440 1440 1440 1439 1439 1440 1440 1440 1440 1441 1441 1441 1442 1443 1444 1445 1446 1447 1448 1449 1451 1454 1456 1458 1459 1460 1462 1464 1466 1466 1467 1467 1467
1437 1435 1434 1433 1433 1434 1436 1437 1437 1436 1436 1435 1434 1435 1435 1435 1436 1436 1436 1436 1436 1436 1437 1438 1439 1440 1441 1442 1444 1446 1448 1450 1452 1453 1454 1455 1457 1459 1461 1462 1462 1462
1434 1432 1430 1429 1429 1431 1433 1433 1432 1431 1431 1430 1430 1430 1431 1431 1431 1431 1430 1430 1430 1431 1432 1432 1433 1434 1435 1436 1438 1440 1441 1443 1445 1447 1448 1449 1450 1453 1455 1456 1457 1458
1432 1429 1427 1426 1427 1428 1429 1428 1427 1427 1427 1427 1426 1427 1427 1427 1426 1426 1425 1425 1425 1425 1426 1427 1428 1429 1430 1431 1432 1434 1435 1437 1439 1440 1442 1444 1445 1447 1449 1451 1451 1453
1430 1428 1425 1424 1424 1424 1424 1423 1422 1422 1422 1422 1423 1423 1423 1423 1422 1421 1421 1420 1420 1420 1421 1422 1422 1423 1424 1425 1427 1428 1430 1431 1433 1434 1436 1439 1440 1442 1444 1445 1446 1448
1428 1426 1424 1422 1421 1421 1420 1420 1418 1418 1418 1418 1419 1420 1419 1419 1418 1417 1416 1416 1415 1415 1416 1417 1418 1418 1419 1420 1422 1423 1425 1426 1427 1429 1431 1433 1435 1436 1438 1440 1441 1443
1426 1424 1422 1421 1420 1419 1418 1417 1416 1416 1416 1416 1416 1416 1415 1414 1413 1413 1412 1411 1411 1411 1411 1412 1413 1414 1415 1416 1417 1419 1420 1421 1423 1424 1426 1428 1430 1431 1433 1435 1436 1438
1424 1422 1420 1419 1418 1416 1415 1414 1413 1413 1413 1413 1412 1411 1411 1410 1409 1408 1407 1407 1407 1406 1407 1407 1407 1409 1410 1411 1413 1414 1416 1418 1418 1419 1421 1423 1424 1426 1427 1429 1431 1432
1420 1419 1418 1416 1415 1414 1413 1412 1411 1410 1409 1409 1408 1407 1406 1405 1404 1404 1403 1403 1402 1402 1402 1402 1402 1404 1405 1406 1408 1410 1412 1413 1414 1415 1416 1418 1419 1420 1421 1424 1425 1427
1417 1415 1414 1413 1412 1411 1410 1409 1408 1407 1406 1405 1404 1403 1402 1401 1400 1399 1399 1398 1398 1398 1397 1397 1398 1399 1401 1402 1403 1405 1407 1408 1410 1411 1412 1413 1414 1414 1416 1418 1420 1422
1414 1411 1410 1409 1408 1408 1407 1406 1405 1404 1403 1402 1401 1400 1399 1398 1396 1396 1395 1394 1394 1393 1393 1392 1393 1395 1396 1398 1399 1400 1401 1403 1405 1406 1407 1408 1409 1410 1412 1414 1415 1417
1412 1409 1407 1406 1405 1404 1404 1403 1403 1401 1400 1399 1398 1396 1395 1394 1393 1392 1391 1390 1390 1389 1388 1388 1389 1390 1391 1393 1394 1395 1396 1398 1399 1400 1401 1402 1403 1405 1407 1409 1410 1412
1410 1407 1405 1403 1402 1401 1400 1399 1398 1397 1396 1395 1395 1393 1391 1390 1389 1388 1387 1387 1386 1385 1384 1384 1384 1385 1387 1388 1389 1390 1391 1392 1393 1394 1395 1396 1397 1399 1401 1403 1406 1408
1409 1406 1403 1400 1398 1397 1395 1394 1393 1392 1392 1391 1390 1389 1388 1386 1385 1385 1384 1383 1382 1382 1381 1379 1380 1381 1382 1383 1385 1386 1386 1387 1388 1389 1389 1390 1391 1393 1395 1398 1401 1403
1408 1405 1402 1398 1396 1393 1391 1389 1388 1387 1387 1387 1385 1384 1384 1383 1382 1381 1381 1380 1379 1379 1378 1376 1375 1376 1377 1378 1380 1381 1381 1382 1383 1384 1385 1387 1388 1390 1391 1393 1396 1398
1407 1403 1400 1397 1395 1392 1389 1386 1384 1383 1382 1382 1381 1380 1380 1379 1378 1377 1377 1377 1376 1375 1374 1372 1371 1371 1372 1373 1374 1376 1376 1377 1378 1380 1382 1384 1385 1386 1388 1390 1392 1394
1405 1402 1399 1397 1394 1391 1388 1385 1383 1380 1379 1378 1377 1376 1376 1375 1374 1373 1372 1373 1373 1372 1371 1369 1368 1367 1368 1368 1369 1371 1372 1373 1374 1376 1378 1379 1381 1383 1385 1387 1389 1391
1403 1400 1398 1396 1393 1390 1387 1385 1382 1379 1377 1375 1374 1373 1372 1371 1370 1369 1368 1369 1370 1369 1368 1367 1365 1364 1364 1364 1365 1366 1368 1369 1371 1372 1373 1375 1377 1379 1381 1383 1385 1387
Wind_Speed
25 22 21 20 19 18 18 20 22 24 25 25 27 29 31 34 36 38 39 41 43 44 46 47 48 47 46 44 44 45 43 42 41 43 46 48 48 46 47 47 47 47
30 26 23 21 20 19 19 20 21 23 25 25 25 26 29 31 33 35 37 38 41 43 44 45 45 46 46 45 45 46 44 42 41 42 43 46 48 47 47 47 47 47
34 31 27 24 22 20 19 20 20 21 23 24 24 25 26 29 31 34 36 38 40 42 44 45 44 43 44 45 45 46 46 44 43 43 43 44 46 47 47 46 46 46
32 34 31 28 25 23 21 20 20 21 22 23 24 24 25 27 30 32 35 38 40 41 43 45 45 43 44 45 45 45 45 45 44 44 45 45 45 46 46 46 46 47
27 31 32 31 29 26 23 21 20 21 22 22 22 22 24 25 28 30 33 36 39 41 42 44 45 44 45 46 47 46 46 46 45 45 46 46 46 45 45 45 46 47
25 27 30 32 31 28 26 24 21 19 21 21 20 20 22 24 26 29 31 33 36 39 40 41 43 44 45 46 47 48 48 48 48 46 46 47 46 44 43 44 47 48
25 26 28 31 31 31 29 26 22 19 18 19 19 20 22 24 26 27 30 32 33 36 38 39 41 43 44 45 47 49 48 48 49 49 47 47 48 47 45 44 46 48
26 26 27 29 30 32 30 25 22 19 17 17 18 20 22 24 26 26 28 30 32 34 36 39 41 42 43 46 47 48 48 47 48 50 50 49 48 48 47 45 46 47
26 26 26 27 29 30 29 24 20 19 19 18 18 20 22 24 25 26 27 29 32 33 35 38 41 42 43 44 46 47 49 49 47 47 49 50 48 47 47 47 47 47
27 28 27 27 29 28 25 22 19 18 20 20 18 19 22 23 25 26 27 28 32 33 33 36 38 40 41 42 44 46 48 50 48 46 46 48 48 45 44 47 48 48
26 26 25 25 25 24 22 20 19 18 18 18 18 19 22 24 26 27 28 28 31 33 33 35 36 38 40 42 43 43 46 48 49 48 46 47 49 47 45 46 48 49
24 23 21 19 19 20 21 20 19 17 16 16 17 19 22 24 26 27 28 28 30 32 33 35 36 38 40 43 43 43 43 45 48 49 49 49 50 48 46 46 48 49
22 24 21 17 15 16 18 18 15 14 14 14 16 19 22 25 26 27 26 27 29 32 33 35 36 38 40 43 44 43 43 44 47 49 50 50 50 49 48 47 48 49
21 24 24 20 17 15 14 14 13 12 12 12 14 18 22 25 26 26 27 27 29 31 33 34 36 38 41 43 44 44 44 45 47 49 50 50 49 49 49 48 48 49
20 23 24 21 19 16 14 12 11 11 12 11 12 15 19 24 26 26 26 28 29 31 33 35 36 38 42 45 46 47 47 46 47 48 50 51 50 49 49 48 48 49
21 23 24 22 19 17 14 12 11 12 13 14 14 15 17 21 24 25 25 27 28 30 32 34 36 37 40 43 46 48 48 49 48 49 50 51 52 51 49 47 47 50
22 24 25 25 22 18 16 14 14 15 15 15 17 17 18 19 21 22 24 26 27 29 32 33 35 36 37 40 44 46 46 47 48 49 50 52 53 53 50 47 47 50
20 22 25 27 26 22 19 18 18 19 18 18 18 19 20 20 19 19 20 23 27 29 32 34 35 35 36 37 40 43 44 44 46 48 49 51 54 54 51 48 48 49
22 19 21 26 28 26 24 22 23 24 23 21 21 21 21 21 19 17 17 19 23 26 31 34 36 36 36 36 37 39 41 42 44 47 49 50 52 53 52 51 49 48
25 22 19 21 26 29 29 28 28 28 27 25 24 23 23 23 21 18 16 17 19 22 26 30 33 35 36 35 36 38 39 40 42 45 49 50 51 52 53 53 51 49
26 24 22 20 21 26 31 33 33 33 33 31 28 26 26 25 23 19 18 18 18 19 22 26 29 32 32 33 34 35 37 40 41 43 46 50 52 52 52 53 52 51
27 24 24 24 23 23 27 31 35 37 37 36 34 31 29 28 26 22 19 19 19 19 21 25 29 30 30 30 30 30 33 36 39 42 45 50 52 52 52 52 52 52
26 24 24 25 25 26 26 27 30 33 35 36 37 35 33 32 30 26 21 19 19 20 22 23 26 28 29 28 27 28 31 33 36 41 46 50 50 50 49 50 51 51
25 24 25 24 23 24 26 27 28 29 29 31 34 35 34 33 33 31 25 20 19 21 22 22 22 24 26 27 27 28 29 30 32 37 42 46 48 49 49 49 50 49
23 22 22 21 21 22 23 25 27 27 26 26 26 28 30 32 33 34 31 24 20 19 20 21 21 21 22 24 28 29 29 28 29 32 37 41 44 45 46 46 47 47
20 18 18 19 21 22 22 22 22 22 22 21 19 21 25 28 31 33 33 29 24 20 20 20 21 20 19 21 26 29 29 27 28 29 34 38 40 41 42 42 43 44
Wind_Direction
266 270 275 279 282 284 283 281 282 281 281 279 275 270 265 260 257 255 253 252 253 252 248 245 244 244 244 245 243 239 239 243 247 249 248 248 249 251 252 253 253 252
263 266 270 273 275 277 280 283 282 280 281 282 281 275 269 264 259 256 254 252 253 255 251 246 245 245 245 244 242 239 238 240 245 248 249 249 250 251 252 253 253 253
261 263 267 270 272 272 274 278 280 280 281 280 281 280 274 267 261 256 254 252 252 254 252 248 246 246 245 243 241 239 237 238 243 247 249 250 250 251 252 253 253 254
260 259 262 266 269 269 270 272 273 277 281 280 279 281 280 273 264 257 254 253 253 252 251 248 245 245 245 243 240 237 237 239 243 245 246 247 249 250 252 253 253 254
269 259 259 262 265 266 267 267 269 271 274 276 277 278 281 278 270 263 257 254 253 252 251 248 246 246 245 243 239 238 238 240 243 243 242 243 245 248 251 252 253 254
281 268 262 261 261 263 263 262 267 270 268 269 273 276 279 279 274 267 260 256 254 252 251 250 248 246 245 242 239 239 240 241 243 243 243 244 245 246 248 250 252 253
289 278 266 260 258 259 259 258 263 270 268 265 269 276 278 278 276 270 263 259 257 254 252 251 249 247 246 244 241 239 239 241 243 243 245 246 246 245 246 247 249 250
300 290 275 265 261 258 257 259 262 264 265 264 268 275 276 276 276 274 267 259 256 256 255 253 251 249 248 248 246 241 239 242 244 244 246 248 246 245 246 246 247 249
306 300 287 273 265 258 255 261 263 260 259 262 269 276 276 275 275 275 271 261 253 254 255 253 250 248 247 248 248 245 242 243 245 245 247 248 246 246 248 247 246 247
307 303 296 281 267 257 255 260 262 258 258 262 269 273 273 273 272 272 270 263 254 250 251 250 249 248 247 245 245 246 246 245 245 246 247 245 244 246 249 249 247 248
316 309 302 289 269 254 255 261 261 259 260 262 268 272 272 271 271 270 268 264 256 249 247 246 247 247 245 243 243 245 246 246 246 247 247 244 242 244 247 249 248 248
327 325 315 299 274 258 262 269 267 264 264 265 269 273 273 270 269 268 266 263 257 251 247 247 248 246 243 242 243 244 247 247 246 246 247 246 243 242 245 248 248 247
327 334 332 320 300 284 279 276 273 273 275 275 276 274 271 269 269 268 265 260 256 250 247 247 248 247 245 243 242 243 247 247 245 244 245 244 243 243 245 248 248 247
319 328 332 329 322 314 303 290 285 287 288 285 281 277 274 271 271 269 263 258 254 250 247 246 247 248 248 246 244 243 245 246 245 244 244 243 242 243 244 246 247 246
310 312 317 320 317 314 311 302 293 288 285 277 272 276 278 278 277 273 266 259 254 250 248 247 248 249 250 249 246 245 246 246 245 245 244 243 242 243 244 245 246 244
295 294 299 305 308 307 304 294 282 280 279 269 259 262 271 278 281 277 269 262 258 254 251 250 251 251 251 251 249 247 248 247 246 246 245 243 242 243 243 244 245 244
290 285 287 293 298 299 295 288 278 276 277 270 261 258 261 270 278 279 273 265 260 257 255 255 256 254 253 253 252 250 250 248 247 246 245 243 242 242 242 244 246 247
308 289 281 282 287 289 287 284 278 275 274 271 267 264 262 266 275 282 281 272 263 258 254 254 257 258 258 257 254 251 250 248 247 246 244 243 242 242 243 243 246 248
335 312 287 277 278 280 278 273 271 272 273 271 268 267 267 270 275 280 284 281 272 264 256 253 254 258 260 261 259 255 251 248 246 246 246 245 244 244 244 244 246 247
341 333 314 287 275 272 270 266 265 267 269 270 270 267 267 270 274 274 275 277 275 269 263 257 256 258 258 259 261 260 256 250 246 245 245 245 246 246 246 245 245 246
337 334 329 314 291 274 267 264 263 263 265 267 268 267 266 269 273 274 274 272 271 269 266 260 257 257 257 257 259 262 259 252 247 245 244 242 242 244 246 245 243 243
335 331 326 323 314 296 279 269 264 262 262 264 265 264 263 265 269 273 273 271 269 269 268 262 255 253 256 256 257 258 254 249 247 247 245 241 240 241 243 244 243 242
333 330 324 320 319 314 305 292 280 271 266 264 264 262 259 260 264 268 268 269 268 267 268 266 257 251 251 251 251 252 250 247 246 245 241 238 238 240 242 242 242 242
332 328 324 323 323 323 319 313 304 292 280 271 266 263 260 259 263 266 265 263 264 264 264 264 259 253 252 249 247 248 250 247 246 245 241 237 238 239 240 241 242 242
331 329 330 332 331 328 325 322 317 309 298 287 277 271 267 264 264 266 264 259 258 261 261 260 259 257 256 251 244 244 246 244 244 247 245 240 237 237 238 240 241 242
336 337 341 343 339 334 330 327 325 322 315 306 294 281 272 267 264 265 264 260 257 258 257 256 257 258 257 251 241 238 239 239 238 243 244 240 237 236 237 238 239 240